TimeEDT,TemperatureF,Dew PointF,Humidity,Sea Level PressureIn,VisibilityMPH,Wind Direction,Wind SpeedMPH,Gust SpeedMPH,PrecipitationIn,Events,Conditions,WindDirDegrees,DateUTC
12:56 AM,61.9,55.9,81,30.26,10.0,Calm,Calm,-,N/A,,Clear,0,2013-08-18 04:56:00
1:56 AM,59.0,56.8,93,30.26,10.0,Calm,Calm,-,N/A,,Clear,0,2013-08-18 05:56:00
2:56 AM,59.0,55.9,90,30.26,10.0,Calm,Calm,-,N/A,,Clear,0,2013-08-18 06:56:00
3:56 AM,59.0,55.9,90,30.26,10.0,Calm,Calm,-,N/A,,Clear,0,2013-08-18 07:56:00
4:56 AM,57.9,55.9,93,30.25,10.0,Calm,Calm,-,N/A,,Clear,0,2013-08-18 08:56:00
5:56 AM,56.8,55.9,97,30.25,10.0,Calm,Calm,-,N/A,,Clear,0,2013-08-18 09:56:00
6:56 AM,56.8,55.9,97,30.27,10.0,Calm,Calm,-,N/A,,Clear,0,2013-08-18 10:56:00
7:56 AM,59.0,56.8,93,30.28,10.0,Calm,Calm,-,N/A,,Partly Cloudy,0,2013-08-18 11:56:00
8:56 AM,61.0,57.9,90,30.29,10.0,Calm,Calm,-,N/A,,Overcast,0,2013-08-18 12:56:00
9:56 AM,64.9,59.0,81,30.28,10.0,Calm,Calm,-,N/A,,Mostly Cloudy,0,2013-08-18 13:56:00
10:56 AM,69.8,60.8,73,30.26,10.0,Calm,Calm,-,N/A,,Scattered Clouds,0,2013-08-18 14:56:00
11:56 AM,70.0,59.9,70,30.28,10.0,Variable,4.6,-,N/A,,Partly Cloudy,0,2013-08-18 15:56:00
12:56 PM,72.0,61.0,68,30.27,10.0,Calm,Calm,-,N/A,,Mostly Cloudy,0,2013-08-18 16:56:00
1:56 PM,73.4,60.8,65,30.22,10.0,Calm,Calm,-,N/A,,Mostly Cloudy,0,2013-08-18 17:56:00
2:56 PM,72.9,61.9,68,30.25,10.0,Variable,3.5,-,N/A,,Mostly Cloudy,0,2013-08-18 18:56:00
3:56 PM,73.9,63.0,68,30.24,10.0,Variable,4.6,-,N/A,,Mostly Cloudy,0,2013-08-18 19:56:00
4:56 PM,71.6,62.6,73,30.19,10.0,Calm,Calm,-,N/A,,Mostly Cloudy,0,2013-08-18 20:56:00
5:56 PM,70.9,63.0,76,30.22,10.0,Calm,Calm,-,N/A,,Overcast,0,2013-08-18 21:56:00
6:56 PM,70.9,63.0,76,30.22,10.0,Calm,Calm,-,N/A,,Overcast,0,2013-08-18 22:56:00
7:56 PM,70.0,61.9,75,30.21,10.0,Calm,Calm,-,N/A,,Overcast,0,2013-08-18 23:56:00
8:56 PM,68.9,61.9,78,30.21,10.0,Calm,Calm,-,N/A,,Mostly Cloudy,0,2013-08-19 00:56:00
9:56 PM,68.0,61.9,81,30.22,10.0,Calm,Calm,-,N/A,,Overcast,0,2013-08-19 01:56:00
10:56 PM,65.8,61.9,87,30.21,10.0,Calm,Calm,-,N/A,,Overcast,0,2013-08-19 02:56:00
11:56 PM,64.9,63.0,93,30.22,10.0,Calm,Calm,-,N/A,,Overcast,0,2013-08-19 03:56:00